Weather History for Sheldon, IA

Change the Weather History Date:

Thursday, March 7, 2013

  Actual Average Record
Temperature  
Mean Temperature 28 °F -  
Max Temperature 37 °F 39 °F 74 °F (1987)
Min Temperature 19 °F 18 °F -11 °F (2008)
Degree Days  
Heating Degree Days 37    
Moisture  
Dew Point 24 °F    
Average Humidity 90    
Maximum Humidity 100    
Minimum Humidity 65    
Precipitation  
Precipitation 0.00 in - - ()
Sea Level Pressure  
Sea Level Pressure 30.20 in    
Wind  
Wind Speed 15 mph (SE)    
Max Wind Speed 23 mph    
Max Gust Speed 30 mph    
Visibility 8 miles    
Events      
Averages and records for this station are not official NWS values.
T = Trace of Precipitation, MM = Missing Value Source: NWS Daily Summary

Daily Weather History Graph

Daily Weather History Graph

Search for Another Location

Airport:

Trip Planner

Search our weather history database for the weather conditions in past years. The results will help you decide how hot, cold, wet, or windy it might be!

Date:

Astronomy

Mar. 07, 2013 Rise Set
Actual Time 6:48 AM CST 6:20 PM CST
Civil Twilight 6:20 AM CST 6:48 PM CST
Nautical Twilight 5:47 AM CST 7:21 PM CST
Astronomical Twilight 5:14 AM CST 7:54 PM CST
Moon 3:55 AM CST (3/7) 2:03 PM CST (3/7)
Length of Visible Light 12h 28m
Length of Day
11h 31m
Waning Crescent, 20% of the Moon is Illuminated
Mar 7
Waning Crescent
Mar 11
New
Mar 19
First Quarter
Mar 27
Full
Apr 2
Last Quarter

Hourly Weather History & Observations

Time (CST) Temp. Windchill Dew Point Humidity Pressure Visibility Wind Dir Wind Speed Gust Speed Precip Events Conditions
12:15 AM 19.4 °F 7.2 °F 19.4 °F 100% 30.26 in 10.0 mi ESE 11.5 mph - N/A   Overcast
12:35 AM 19.4 °F 5.5 °F 19.4 °F 100% 30.26 in 10.0 mi ESE 15.0 mph 21.9 mph N/A   Overcast
12:55 AM 19.4 °F 4.5 °F 19.4 °F 100% 30.25 in 10.0 mi ESE 17.3 mph - N/A   Overcast
1:15 AM 19.4 °F 5.5 °F 19.4 °F 100% 30.26 in - SE 15.0 mph - N/A   Overcast
1:35 AM 19.4 °F 6.6 °F 19.4 °F 100% 30.27 in 10.0 mi SE 12.7 mph 18.4 mph N/A   Overcast
1:55 AM 19.4 °F 5.5 °F 19.4 °F 100% 30.27 in 10.0 mi SE 15.0 mph - N/A   Overcast
2:15 AM 19.4 °F 6.0 °F 19.4 °F 100% 30.28 in 10.0 mi SSE 13.8 mph - N/A   Overcast
2:35 AM 19.4 °F 7.9 °F 19.4 °F 100% 30.27 in 10.0 mi SE 10.4 mph 16.1 mph N/A   Overcast
2:55 AM 19.4 °F 6.0 °F 19.4 °F 100% 30.25 in 10.0 mi SE 13.8 mph - N/A   Overcast
3:15 AM 19.4 °F 6.6 °F 19.4 °F 100% 30.25 in 9.0 mi SE 12.7 mph - N/A   Overcast
3:35 AM 19.4 °F 7.9 °F 19.4 °F 100% 30.25 in 8.0 mi ESE 10.4 mph - N/A   Overcast
3:55 AM 21.2 °F 9.5 °F 21.2 °F 100% 30.24 in 7.0 mi SE 11.5 mph - N/A   Overcast
4:15 AM 21.2 °F 8.3 °F 21.2 °F 100% 30.23 in 7.0 mi ESE 13.8 mph - N/A   Overcast
4:35 AM 21.2 °F 7.8 °F 21.2 °F 100% 30.24 in 7.0 mi ESE 15.0 mph - N/A   Overcast
4:55 AM 21.2 °F 7.8 °F 21.2 °F 100% 30.24 in 7.0 mi ESE 15.0 mph - N/A   Overcast
5:15 AM 21.2 °F 8.9 °F 21.2 °F 100% 30.25 in 8.0 mi ESE 12.7 mph 18.4 mph N/A   Overcast
5:35 AM 21.2 °F 7.3 °F 21.2 °F 100% 30.24 in 7.0 mi ESE 16.1 mph - N/A   Overcast
5:55 AM 19.4 °F 6.0 °F 19.4 °F 100% 30.24 in 8.0 mi ESE 13.8 mph 21.9 mph N/A   Overcast
6:15 AM 19.4 °F 5.0 °F 19.4 °F 100% 30.24 in 8.0 mi ESE 16.1 mph 21.9 mph N/A   Overcast
6:35 AM 19.4 °F 5.0 °F 19.4 °F 100% 30.24 in 8.0 mi SE 16.1 mph 21.9 mph N/A   Overcast
6:55 AM 19.4 °F 4.5 °F 19.4 °F 100% 30.25 in 7.0 mi SE 17.3 mph - N/A   Overcast
7:15 AM 19.4 °F 6.0 °F 19.4 °F 100% 30.25 in 8.0 mi SE 13.8 mph 21.9 mph N/A   Overcast
7:35 AM 19.4 °F 6.0 °F 19.4 °F 100% 30.24 in 7.0 mi SE 13.8 mph - N/A   Scattered Clouds
7:55 AM 19.4 °F 5.0 °F 19.4 °F 100% 30.25 in 6.0 mi SE 16.1 mph - N/A   Partly Cloudy
8:15 AM 21.2 °F 6.0 °F 19.4 °F 93% 30.24 in 7.0 mi SE 19.6 mph - N/A   Clear
8:35 AM 21.2 °F 6.4 °F 19.4 °F 93% 30.23 in 7.0 mi SE 18.4 mph 26.5 mph N/A   Clear
8:55 AM 23.0 °F 8.3 °F 21.2 °F 93% 30.22 in 8.0 mi SE 19.6 mph 27.6 mph N/A   Clear
9:15 AM 23.0 °F 8.7 °F 21.2 °F 93% 30.22 in 8.0 mi SE 18.4 mph 25.3 mph N/A   Clear
9:35 AM 24.8 °F 11.5 °F 21.2 °F 86% 30.22 in 9.0 mi SE 17.3 mph - N/A   Clear
9:55 AM 26.6 °F 13.4 °F 23.0 °F 86% 30.21 in 9.0 mi SE 18.4 mph 25.3 mph N/A   Clear
10:15 AM 28.4 °F 15.8 °F 23.0 °F 80% 30.20 in 9.0 mi SE 18.4 mph 24.2 mph N/A   Partly Cloudy
10:35 AM 28.4 °F 15.8 °F 23.0 °F 80% 30.20 in 9.0 mi SSE 18.4 mph 25.3 mph N/A   Clear
10:55 AM 30.2 °F 17.1 °F 23.0 °F 75% 30.20 in 9.0 mi SSE 21.9 mph - N/A   Clear
11:15 AM 30.2 °F 18.9 °F 24.8 °F 80% 30.19 in 9.0 mi SE 16.1 mph 25.3 mph N/A   Clear
11:35 AM 32.0 °F 21.2 °F 24.8 °F 75% 30.19 in 9.0 mi SE 16.1 mph 24.2 mph N/A   Clear
11:55 AM 32.0 °F 20.5 °F 24.8 °F 75% 30.19 in 9.0 mi SE 18.4 mph - N/A   Clear
12:15 PM 33.8 °F 23.2 °F 26.6 °F 75% 30.19 in 9.0 mi SE 17.3 mph 24.2 mph N/A   Clear
12:35 PM 33.8 °F 23.5 °F 26.6 °F 75% 30.18 in 9.0 mi SE 16.1 mph 24.2 mph N/A   Clear
12:55 PM 33.8 °F 22.5 °F 26.6 °F 75% 30.17 in 9.0 mi SE 19.6 mph - N/A   Clear
1:15 PM 35.6 °F 24.8 °F 26.6 °F 70% 30.16 in 10.0 mi SE 19.6 mph - N/A   Clear
1:35 PM 35.6 °F 25.2 °F 26.6 °F 70% 30.15 in 10.0 mi SE 18.4 mph 25.3 mph N/A   Clear
1:55 PM 35.6 °F 25.2 °F 26.6 °F 70% 30.13 in 10.0 mi SE 18.4 mph 25.3 mph N/A   Clear
2:15 PM 35.6 °F 24.2 °F 26.6 °F 70% 30.13 in 10.0 mi SE 21.9 mph - N/A   Clear
2:35 PM 35.6 °F 24.5 °F 26.6 °F 70% 30.13 in 10.0 mi SE 20.7 mph 27.6 mph N/A   Clear
2:55 PM 37.4 °F 26.4 °F 26.6 °F 65% 30.12 in 10.0 mi SE 23.0 mph - N/A   Clear
3:15 PM 37.4 °F 26.9 °F 28.4 °F 70% 30.12 in 10.0 mi SE 20.7 mph 28.8 mph N/A   Clear
3:35 PM 35.6 °F 24.8 °F 28.4 °F 75% 30.13 in 10.0 mi ESE 19.6 mph 29.9 mph N/A   Clear
3:55 PM 37.4 °F 26.9 °F 28.4 °F 70% 30.13 in 10.0 mi SE 20.7 mph - N/A   Clear
4:15 PM 35.6 °F 24.8 °F 28.4 °F 75% 30.13 in 10.0 mi SE 19.6 mph 25.3 mph N/A   Clear
4:35 PM 35.6 °F 24.5 °F 30.2 °F 81% 30.12 in 10.0 mi ESE 20.7 mph - N/A   Clear
4:55 PM 35.6 °F 25.2 °F 30.2 °F 81% 30.12 in 9.0 mi ESE 18.4 mph 25.3 mph N/A   Clear
5:15 PM 35.6 °F 24.8 °F 30.2 °F 81% 30.12 in 9.0 mi SE 19.6 mph - N/A   Clear
5:35 PM 33.8 °F 23.9 °F 30.2 °F 87% 30.13 in 9.0 mi SE 15.0 mph 24.2 mph N/A   Clear
5:55 PM 33.8 °F 23.9 °F 30.2 °F 87% 30.13 in 7.0 mi SE 15.0 mph - N/A   Clear
7:35 PM 30.2 °F 18.5 °F 30.2 °F 100% 30.14 in 7.0 mi SE 17.3 mph - N/A   Clear
7:55 PM 30.2 °F 20.2 °F 30.2 °F 100% 30.15 in 7.0 mi SE 12.7 mph 20.7 mph N/A   Clear
8:15 PM 30.2 °F 20.2 °F 30.2 °F 100% 30.16 in 6.0 mi SE 12.7 mph 19.6 mph N/A   Clear
8:35 PM 30.2 °F 19.3 °F 28.4 °F 93% 30.17 in 6.0 mi SE 15.0 mph - N/A   Clear
8:55 PM 30.2 °F 19.8 °F 28.4 °F 93% 30.17 in 5.0 mi SE 13.8 mph 20.7 mph N/A   Clear
9:15 PM 30.2 °F 19.3 °F 28.4 °F 93% 30.16 in 5.0 mi SE 15.0 mph - N/A   Clear
9:35 PM 28.4 °F 17.5 °F 28.4 °F 100% 30.17 in 5.0 mi SE 13.8 mph 19.6 mph N/A   Clear
9:55 PM 28.4 °F 18.0 °F 28.4 °F 100% 30.18 in 5.0 mi SE 12.7 mph 18.4 mph N/A   Clear
10:15 PM 28.4 °F 18.0 °F 28.4 °F 100% 30.18 in 5.0 mi SE 12.7 mph - N/A   Clear
10:35 PM 28.4 °F 18.5 °F 26.6 °F 93% 30.18 in 5.0 mi SE 11.5 mph - N/A   Clear
10:55 PM 28.4 °F 19.7 °F 26.6 °F 93% 30.18 in 5.0 mi SE 9.2 mph - N/A   Clear
11:15 PM 28.4 °F 19.7 °F 26.6 °F 93% 30.19 in 5.0 mi SE 9.2 mph - N/A   Clear
11:35 PM 28.4 °F 20.4 °F 26.6 °F 93% 30.19 in 5.0 mi SE 8.1 mph - N/A   Clear
11:55 PM 26.6 °F 17.5 °F 26.6 °F 100% 30.19 in 5.0 mi SE 9.2 mph - N/A   Clear